OE-11007 Weather Reports


Display with metric or nautical units.
time (UTC)temp
F
wind
direction
speed
MPH
gust
MPH
rain 1hr
in
rain 24hr
in
rain mn
in
humidity
%
barometer
mb
20260903081125 65 279 9.0 13.0 0.00 0.00 0.00 63 1020.9
20260903080512 64 274 11.0 17.0 0.00 0.00 0.00 64 1021.2
20260903075512 64 272 12.0 17.0 0.00 0.00 0.00 64 1021.2
20260903074125 64 262 10.0 17.0 0.00 0.00 0.00 67 1021.3
20260903073511 63 247 9.0 15.0 0.00 0.00 0.00 70 1021.3
20260903072511 62 243 7.0 12.0 0.00 0.00 0.00 70 1021.4
20260903071125 62 254 6.0 10.0 0.00 0.00 0.00 72 1021.5
20260903070512 60 255 6.0 10.0 0.00 0.00 0.00 75 1021.8
20260903065512 61 255 6.0 10.0 0.00 0.00 0.00 73 1021.5
20260903064124 62 253 6.0 9.0 0.00 0.00 0.00 72 1021.3
20260903063511 61 254 5.0 8.0 0.00 0.00 0.00 73 1021.3
20260903062512 60 249 5.0 7.0 0.00 0.00 0.00 75 1021.5
20260903061125 59 257 3.0 6.0 0.00 0.00 0.00 78 1021.5
20260903060512 60 250 5.0 7.0 0.00 0.00 0.00 76 1021.5
20260903055511 60 251 4.0 8.0 0.00 0.00 0.00 76 1021.5
20260903054124 59 237 3.0 5.0 0.00 0.00 0.00 77 1021.5
20260903053512 57 248 3.0 5.0 0.00 0.00 0.00 78 1021.9
20260903052512 57 247 3.0 6.0 0.00 0.00 0.00 78 1021.9
20260903051125 58 247 3.0 6.0 0.00 0.00 0.00 77 1021.7
20260903050511 58 231 4.0 6.0 0.00 0.00 0.00 76 1021.5
20260903045512 57 243 3.0 5.0 0.00 0.00 0.00 78 1021.6
20260903044124 57 244 3.0 4.0 0.00 0.00 0.00 77 1021.5
20260903043511 58 243 4.0 6.0 0.00 0.00 0.00 76 1021.5
20260903042512 58 242 4.0 5.0 0.00 0.00 0.00 75 1021.2
20260903041124 59 239 4.0 6.0 0.00 0.00 0.00 73 1021.1
20260903040512 58 246 3.0 6.0 0.00 0.00 0.00 74 1021.1
20260903035512 59 242 3.0 5.0 0.00 0.00 0.00 73 1021.1
20260903034511 59 232 3.0 4.0 0.00 0.00 0.00 72 1021.0
20260903033511 60 240 3.0 4.0 0.00 0.00 0.00 72 1021.0
20260903032512 59 231 1.0 3.0 0.00 0.00 0.00 75 1021.1
20260903031125 59 266 1.0 2.0 0.00 0.00 0.00 72 1021.1
20260903030512 59 278 2.0 4.0 0.00 0.00 0.00 71 1021.1
20260903025512 59 253 2.0 3.0 0.00 0.00 0.00 70 1021.0
20260903024512 60 245 2.0 4.0 0.00 0.00 0.00 69 1020.9
20260903023512 60 227 3.0 4.0 0.00 0.00 0.00 70 1020.7
20260903022512 60 225 2.0 5.0 0.00 0.00 0.00 70 1020.7
20260903021124 59 242 3.0 5.0 0.00 0.00 0.00 73 1020.8
20260903020512 59 257 2.0 4.0 0.00 0.00 0.00 74 1020.9
20260903015512 58 255 2.0 4.0 0.00 0.00 0.00 74 1021.1
20260903014124 58 242 1.0 3.0 0.00 0.00 0.00 74 1021.1
20260903013511 58 110 1.0 2.0 0.00 0.00 0.00 74 1021.1
20260903012511 58 110 0.0 2.0 0.00 0.00 0.00 77 1021.3
20260903011125 58 268 1.0 2.0 0.00 0.00 0.00 73 1021.1
20260903010512 58 255 2.0 3.0 0.00 0.00 0.00 75 1021.1
20260903005512 59 248 1.0 2.0 0.00 0.00 0.00 70 1020.9
20260903004125 59 146 1.0 2.0 0.00 0.00 0.00 69 1020.9
20260903003512 59 148 1.0 2.0 0.00 0.00 0.00 71 1020.9
20260903002512 59 249 0.0 2.0 0.00 0.00 0.00 72 1020.9
20260903001524 59 208 1.0 2.0 0.00 0.00 0.00 72 1021.0
20260903000511 59 137 0.0 1.0 0.00 0.00 0.00 71 1021.0
20260902235511 59 96 2.0 2.0 0.00 0.00 0.00 70 1021.0
20260902234125 59 81 2.0 2.0 0.00 0.00 0.00 73 1021.3
20260902233511 59 91 2.0 2.0 0.00 0.00 0.00 71 1021.3
20260902232511 59 71 1.0 2.0 0.00 0.00 0.00 71 1021.3
20260902231512 59 31 0.0 1.0 0.00 0.00 0.00 72 1021.3
20260902230511 59 99 1.0 2.0 0.00 0.00 0.00 72 1021.3
20260902225512 59 82 2.0 2.0 0.00 0.00 0.00 72 1021.3
20260902224125 59 73 2.0 2.0 0.00 0.00 0.00 72 1021.3
20260902223512 59 74 2.0 3.0 0.00 0.00 0.00 71 1021.3
20260902222512 59 57 3.0 4.0 0.00 0.00 0.00 72 1021.3
20260902221125 59 58 3.0 4.0 0.00 0.00 0.00 74 1021.1
20260902220511 58 63 3.0 4.0 0.00 0.00 0.00 75 1021.2
20260902215512 58 66 3.0 4.0 0.00 0.00 0.00 77 1021.2
20260902214125 59 49 1.0 3.0 0.00 0.00 0.00 72 1021.0
20260902213511 59 152 0.0 2.0 0.00 0.00 0.00 70 1020.9
20260902211125 61 71 2.0 3.0 0.00 0.00 0.00 64 1020.7
20260902210512 61 99 1.0 2.0 0.00 0.00 0.00 65 1020.6
20260902205512 61 140 1.0 3.0 0.00 0.00 0.00 64 1020.6
20260902204126 61 138 1.0 3.0 0.00 0.00 0.00 63 1020.6
20260902203512 61 136 1.0 2.0 0.00 0.00 0.00 66 1020.7
20260902202512 60 185 1.0 2.0 0.00 0.00 0.00 67 1020.8
20260902201125 60 223 2.0 3.0 0.00 0.00 0.00 68 1020.8
20260902200512 61 196 1.0 2.0 0.00 0.00 0.00 67 1020.7
20260902195512 61 154 0.0 1.0 0.00 0.00 0.00 64 1020.5
20260902194125 61 164 0.0 2.0 0.00 0.00 0.00 67 1020.7
20260902193512 61 215 1.0 2.0 0.00 0.00 0.00 65 1020.7
20260902192511 62 211 2.0 3.0 0.00 0.00 0.00 61 1020.5
20260902191125 62 360 0.0 2.0 0.00 0.00 0.00 61 1020.5
20260902190511 62 44 2.0 3.0 0.00 0.00 0.00 62 1020.4
20260902185512 62 77 2.0 3.0 0.00 0.00 0.00 64 1020.3
20260902184125 62 71 2.0 3.0 0.00 0.00 0.00 65 1020.3
20260902183512 62 39 1.0 2.0 0.00 0.00 0.00 65 1020.2
20260902182512 62 237 1.0 1.0 0.00 0.00 0.00 63 1020.1
20260902181125 63 270 1.0 2.0 0.00 0.00 0.00 60 1019.9
20260902180512 63 303 2.0 3.0 0.00 0.00 0.00 62 1019.8
20260902175512 64 307 2.0 3.0 0.00 0.00 0.00 58 1019.8
20260902174125 64 313 3.0 3.0 0.00 0.00 0.00 58 1019.6
20260902173511 65 307 3.0 4.0 0.00 0.00 0.00 58 1019.6
20260902172512 65 287 4.0 6.0 0.00 0.00 0.00 58 1019.5
20260902171125 66 279 4.0 6.0 0.00 0.00 0.00 55 1019.3
20260902170512 66 267 4.0 7.0 0.00 0.00 0.00 56 1019.2
20260902165512 67 267 4.0 7.0 0.00 0.00 0.00 54 1019.2
20260902164125 67 273 6.0 13.0 0.00 0.00 0.00 54 1019.1
20260902163512 67 275 7.0 11.0 0.00 0.00 0.00 52 1019.1
20260902162512 68 283 6.0 11.0 0.00 0.00 0.00 52 1018.9
20260902161125 69 267 8.0 12.0 0.00 0.00 0.00 49 1018.8
20260902160511 71 264 8.0 13.0 0.00 0.00 0.00 46 1018.6
20260902155512 70 273 9.0 13.0 0.00 0.00 0.00 48 1018.7
20260902154125 69 260 9.0 17.0 0.00 0.00 0.00 47 1018.9
20260902153512 68 284 9.0 14.0 0.00 0.00 0.00 48 1019.1
20260902152511 70 276 10.0 16.0 0.00 0.00 0.00 44 1018.8
20260902151125 71 254 8.0 13.0 0.00 0.00 0.00 43 1018.6
20260902150512 70 267 8.0 14.0 0.00 0.00 0.00 47 1018.6
20260902145512 69 271 8.0 12.0 0.00 0.00 0.00 47 1019.0
20260902144125 71 241 10.0 16.0 0.00 0.00 0.00 45 1018.8
20260902143511 71 300 10.0 15.0 0.00 0.00 0.00 46 1018.6
20260902142512 71 290 3.0 12.0 0.00 0.00 0.00 48 1018.7
20260902141125 71 261 4.0 11.0 0.00 0.00 0.00 46 1018.8
20260902140512 72 273 4.0 11.0 0.00 0.00 0.00 45 1018.7
20260902135512 70 301 9.0 12.0 0.00 0.00 0.00 47 1018.9
20260902134124 71 288 6.0 11.0 0.00 0.00 0.00 48 1018.8
20260902133512 70 281 5.0 13.0 0.00 0.00 0.00 50 1018.9
20260902132512 69 293 8.0 12.0 0.00 0.00 0.00 52 1019.4
20260902131125 69 294 5.0 10.0 0.00 0.00 0.00 52 1019.4
20260902130512 69 312 8.0 12.0 0.00 0.00 0.00 53 1019.5
20260902125512 70 318 7.0 13.0 0.00 0.00 0.00 51 1019.3
20260902124124 70 301 4.0 10.0 0.00 0.00 0.00 52 1019.5
20260902123512 69 301 7.0 11.0 0.00 0.00 0.00 55 1019.6
20260902122512 69 264 4.0 8.0 0.00 0.00 0.00 51 1019.7
20260902121125 69 291 6.0 11.0 0.00 0.00 0.00 54 1019.8
20260902120511 68 278 4.0 9.0 0.00 0.00 0.00 51 1019.9
20260902115511 69 283 7.0 11.0 0.00 0.00 0.00 52 1020.0
20260902114125 68 284 8.0 12.0 0.00 0.00 0.00 52 1020.1
20260902113512 69 279 8.0 14.0 0.00 0.00 0.00 51 1020.2
20260902112512 69 282 7.0 11.0 0.00 0.00 0.00 51 1020.1
20260902111125 68 275 8.0 13.0 0.00 0.00 0.00 51 1020.3
20260902110512 68 289 10.0 13.0 0.00 0.00 0.00 51 1020.4
20260902105511 68 295 8.0 13.0 0.00 0.00 0.00 50 1020.3
20260902104125 69 287 8.0 14.0 0.00 0.00 0.00 51 1020.2
20260902103512 71 242 5.0 11.0 0.00 0.00 0.00 48 1020.0
20260902102511 70 242 7.0 13.0 0.00 0.00 0.00 47 1020.2
20260902101125 69 207 9.0 13.0 0.00 0.00 0.00 48 1020.3
20260902100512 70 265 4.0 8.0 0.00 0.00 0.00 50 1020.0
20260902095512 68 224 6.0 11.0 0.00 0.00 0.00 48 1020.5
20260902094125 69 275 6.0 12.0 0.00 0.00 0.00 50 1020.3
20260902093512 68 222 2.0 8.0 0.00 0.00 0.00 49 1020.4
20260902092511 68 248 5.0 11.0 0.00 0.00 0.00 50 1020.5
20260902091124 68 240 4.0 11.0 0.00 0.00 0.00 51 1020.5
20260902090512 68 250 4.0 8.0 0.00 0.00 0.00 51 1020.5
20260902084124 67 251 3.0 7.0 0.00 0.00 0.00 53 1020.8
20260902083512 68 262 3.0 10.0 0.00 0.00 0.00 52 1020.6
20260902082512 67 284 4.0 7.0 0.00 0.00 0.00 55 1020.7